Time,TemperatureF,DewpointF,PressureIn,WindDirection,WindDirectionDegrees,WindSpeedMPH,WindSpeedGustMPH,Humidity,HourlyPrecipIn,Conditions,Clouds,dailyrainin,SoftwareType,DateUTC
2013-06-09 00:04:00,85.1,36.2,29.90,NNW,338,1.6,6.0,18,0.00,,,0.00,WUHU216HW,2013-06-09 07:04:00,
2013-06-09 00:14:00,84.6,35.7,29.90,NW,315,2.0,3.1,18,0.00,,,0.00,WUHU216HW,2013-06-09 07:14:00,
2013-06-09 00:24:00,84.2,35.5,29.90,NW,315,0.0,1.8,18,0.00,,,0.00,WUHU216HW,2013-06-09 07:24:00,
2013-06-09 00:34:00,83.7,35.0,29.90,SSE,158,1.3,1.3,18,0.00,,,0.00,WUHU216HW,2013-06-09 07:34:00,
2013-06-09 00:44:00,83.0,36.2,29.90,SSE,158,2.5,2.5,19,0.00,,,0.00,WUHU216HW,2013-06-09 07:44:00,
2013-06-09 00:54:00,82.3,35.7,29.90,SSE,158,1.1,2.7,19,0.00,,,0.00,WUHU216HW,2013-06-09 07:54:00,
2013-06-09 01:04:00,81.7,35.2,29.90,South,180,0.9,1.1,19,0.00,,,0.00,WUHU216HW,2013-06-09 08:04:00,
2013-06-09 01:14:00,81.2,34.7,29.90,SSE,158,0.0,0.9,19,0.00,,,0.00,WUHU216HW,2013-06-09 08:14:00,
2013-06-09 01:24:00,80.5,36.9,29.91,SSE,158,0.0,0.0,21,0.00,,,0.00,WUHU216HW,2013-06-09 08:24:00,
2013-06-09 01:34:00,79.7,37.3,29.90,SE,135,0.0,0.0,22,0.00,,,0.00,WUHU216HW,2013-06-09 08:34:00,
2013-06-09 01:45:00,78.8,36.5,29.91,North,0,0.4,0.4,22,0.00,,,0.00,WUHU216HW,2013-06-09 08:45:00,
2013-06-09 01:55:00,78.1,36.9,29.91,NE,45,0.0,0.9,23,0.00,,,0.00,WUHU216HW,2013-06-09 08:55:00,
2013-06-09 02:05:00,77.6,36.6,29.90,NNE,23,2.0,2.0,23,0.00,,,0.00,WUHU216HW,2013-06-09 09:05:00,
2013-06-09 02:15:00,77.4,36.4,29.90,ESE,113,0.9,1.6,23,0.00,,,0.00,WUHU216HW,2013-06-09 09:15:00,
2013-06-09 02:25:00,76.9,35.9,29.90,SE,135,0.0,1.6,23,0.00,,,0.00,WUHU216HW,2013-06-09 09:25:00,
2013-06-09 02:35:00,76.3,36.6,29.90,ENE,68,0.0,0.0,24,0.00,,,0.00,WUHU216HW,2013-06-09 09:35:00,
2013-06-09 02:45:00,75.6,35.9,29.90,SE,135,0.9,1.8,24,0.00,,,0.00,WUHU216HW,2013-06-09 09:45:00,
2013-06-09 02:55:00,75.2,35.7,29.91,SW,225,0.0,0.7,24,0.00,,,0.00,WUHU216HW,2013-06-09 09:55:00,
2013-06-09 03:05:00,74.7,36.2,29.91,South,180,0.0,1.3,25,0.00,,,0.00,WUHU216HW,2013-06-09 10:05:00,
2013-06-09 03:15:00,74.2,36.7,29.91,SSW,203,0.0,1.8,26,0.00,,,0.00,WUHU216HW,2013-06-09 10:15:00,
2013-06-09 03:25:00,73.6,38.3,29.92,SSW,203,1.1,1.1,28,0.00,,,0.00,WUHU216HW,2013-06-09 10:25:00,
2013-06-09 03:35:00,73.1,38.9,29.91,ESE,113,0.0,1.1,29,0.00,,,0.00,WUHU216HW,2013-06-09 10:35:00,
2013-06-09 03:45:00,72.9,38.7,29.92,ENE,68,1.1,1.1,29,0.00,,,0.00,WUHU216HW,2013-06-09 10:45:00,
2013-06-09 03:55:00,72.7,37.5,29.91,NE,45,0.0,1.1,28,0.00,,,0.00,WUHU216HW,2013-06-09 10:55:00,
2013-06-09 04:05:00,72.5,37.4,29.91,WSW,248,0.0,1.3,28,0.00,,,0.00,WUHU216HW,2013-06-09 11:05:00,
2013-06-09 04:15:00,72.4,38.3,29.91,NE,45,0.0,0.7,29,0.00,,,0.00,WUHU216HW,2013-06-09 11:15:00,
2013-06-09 04:26:00,72.0,38.0,29.91,NE,45,0.0,0.4,29,0.00,,,0.00,WUHU216HW,2013-06-09 11:26:00,
2013-06-09 04:36:00,71.6,37.7,29.91,ENE,68,0.4,0.4,29,0.00,,,0.00,WUHU216HW,2013-06-09 11:36:00,
2013-06-09 04:46:00,71.3,37.4,29.92,SW,225,0.0,0.7,29,0.00,,,0.00,WUHU216HW,2013-06-09 11:46:00,
2013-06-09 04:56:00,71.1,38.3,29.92,SE,135,1.1,1.1,30,0.00,,,0.00,WUHU216HW,2013-06-09 11:56:00,
2013-06-09 05:06:00,70.7,37.9,29.92,WSW,248,0.7,0.9,30,0.00,,,0.00,WUHU216HW,2013-06-09 12:06:00,
2013-06-09 05:16:00,70.4,38.4,29.93,North,0,0.4,0.9,31,0.00,,,0.00,WUHU216HW,2013-06-09 12:16:00,
2013-06-09 05:26:00,70.2,38.9,29.93,NNW,338,0.0,0.0,32,0.00,,,0.00,WUHU216HW,2013-06-09 12:26:00,
2013-06-09 05:36:00,70.0,39.4,29.92,WSW,248,0.0,1.1,33,0.00,,,0.00,WUHU216HW,2013-06-09 12:36:00,
2013-06-09 05:46:00,69.8,40.1,29.93,WSW,248,0.2,0.7,34,0.00,,,0.00,WUHU216HW,2013-06-09 12:46:00,
2013-06-09 05:56:00,70.0,40.2,29.93,SW,225,0.0,0.4,34,0.00,,,0.00,WUHU216HW,2013-06-09 12:56:00,
2013-06-09 06:06:00,70.9,41.8,29.94,NNW,338,0.0,1.3,35,0.00,,,0.00,WUHU216HW,2013-06-09 13:06:00,
2013-06-09 06:17:00,73.4,43.2,29.94,West,270,0.0,0.9,34,0.00,,,0.00,WUHU216HW,2013-06-09 13:17:00,
2013-06-09 06:27:00,73.6,43.3,29.95,North,0,0.0,0.7,34,0.00,,,0.00,WUHU216HW,2013-06-09 13:27:00,
2013-06-09 06:37:00,74.0,43.7,29.95,WNW,293,0.0,1.1,34,0.00,,,0.00,WUHU216HW,2013-06-09 13:37:00,
2013-06-09 06:47:00,74.9,44.5,29.95,West,270,0.4,1.1,34,0.00,,,0.00,WUHU216HW,2013-06-09 13:47:00,
2013-06-09 06:57:00,76.1,44.8,29.95,NNE,23,0.0,0.4,33,0.00,,,0.00,WUHU216HW,2013-06-09 13:57:00,
2013-06-09 07:07:00,77.6,44.6,29.95,NW,315,0.0,0.7,31,0.00,,,0.00,WUHU216HW,2013-06-09 14:07:00,
2013-06-09 07:17:00,78.8,45.6,29.95,NNW,338,0.4,1.6,31,0.00,,,0.00,WUHU216HW,2013-06-09 14:17:00,
2013-06-09 07:27:00,80.1,43.8,29.95,WNW,293,0.4,0.7,28,0.00,,,0.00,WUHU216HW,2013-06-09 14:27:00,
2013-06-09 07:37:00,81.2,42.7,29.95,NNW,338,1.8,1.8,26,0.00,,,0.00,WUHU216HW,2013-06-09 14:37:00,
2013-06-09 07:47:00,82.4,42.7,29.95,WNW,293,1.3,1.8,25,0.00,,,0.00,WUHU216HW,2013-06-09 14:47:00,
2013-06-09 07:57:00,83.5,41.5,29.96,WSW,248,1.1,2.9,23,0.00,,,0.00,WUHU216HW,2013-06-09 14:57:00,
2013-06-09 08:07:00,84.6,41.3,29.96,NW,315,1.1,2.7,22,0.00,,,0.00,WUHU216HW,2013-06-09 15:07:00,
2013-06-09 08:17:00,85.7,41.1,29.96,WSW,248,1.3,3.8,21,0.00,,,0.00,WUHU216HW,2013-06-09 15:17:00,
2013-06-09 08:27:00,86.6,41.9,29.96,WNW,293,2.2,4.7,21,0.00,,,0.00,WUHU216HW,2013-06-09 15:27:00,
2013-06-09 08:37:00,87.3,39.7,29.96,West,270,1.3,2.5,19,0.00,,,0.00,WUHU216HW,2013-06-09 15:37:00,
2013-06-09 08:47:00,87.8,40.2,29.96,NW,315,2.0,2.7,19,0.00,,,0.00,WUHU216HW,2013-06-09 15:47:00,
2013-06-09 08:58:00,88.6,37.4,29.97,North,0,3.1,3.1,17,0.00,,,0.00,WUHU216HW,2013-06-09 15:58:00,
2013-06-09 09:08:00,88.7,39.2,29.96,NW,315,3.8,3.8,18,0.00,,,0.00,WUHU216HW,2013-06-09 16:08:00,
2013-06-09 09:18:00,89.6,36.4,29.96,NNE,23,1.6,3.4,16,0.00,,,0.00,WUHU216HW,2013-06-09 16:18:00,
2013-06-09 09:28:00,90.2,35.1,29.96,WSW,248,0.4,3.8,15,0.00,,,0.00,WUHU216HW,2013-06-09 16:28:00,
2013-06-09 09:38:00,90.9,35.6,29.96,NW,315,2.2,3.4,15,0.00,,,0.00,WUHU216HW,2013-06-09 16:38:00,
2013-06-09 09:48:00,92.0,33.0,29.95,NW,315,6.3,6.3,13,0.00,,,0.00,WUHU216HW,2013-06-09 16:48:00,
2013-06-09 09:58:00,92.9,31.9,29.95,NW,315,4.0,7.2,12,0.00,,,0.00,WUHU216HW,2013-06-09 16:58:00,
2013-06-09 10:08:00,94.3,31.2,29.95,NNW,338,2.7,6.3,11,0.00,,,0.00,WUHU216HW,2013-06-09 17:08:00,
2013-06-09 10:18:00,94.7,29.8,29.95,NW,315,6.3,9.2,10,0.00,,,0.00,WUHU216HW,2013-06-09 17:18:00,
2013-06-09 10:28:00,95.2,30.2,29.96,NW,315,4.7,6.9,10,0.00,,,0.00,WUHU216HW,2013-06-09 17:28:00,
2013-06-09 10:38:00,95.6,30.4,29.95,NW,315,4.7,5.4,10,0.00,,,0.00,WUHU216HW,2013-06-09 17:38:00,
2013-06-09 10:48:00,96.1,30.8,29.95,WNW,293,3.8,8.1,8,0.00,,,0.00,WUHU216HW,2013-06-09 17:48:00,
2013-06-09 10:58:00,97.0,31.5,29.95,North,0,3.4,4.7,8,0.00,,,0.00,WUHU216HW,2013-06-09 17:58:00,
2013-06-09 11:08:00,97.2,31.6,29.95,NW,315,3.6,5.4,8,0.00,,,0.00,WUHU216HW,2013-06-09 18:08:00,
2013-06-09 11:18:00,97.4,31.8,29.95,NW,315,2.5,7.6,8,0.00,,,0.00,WUHU216HW,2013-06-09 18:18:00,
2013-06-09 11:28:00,98.3,32.5,29.95,North,0,2.5,7.2,7,0.00,,,0.00,WUHU216HW,2013-06-09 18:28:00,
2013-06-09 11:38:00,98.8,33.0,29.94,West,270,1.8,6.5,7,0.00,,,0.00,WUHU216HW,2013-06-09 18:38:00,
2013-06-09 11:48:00,99.2,33.2,29.94,West,270,5.1,6.9,5,0.00,,,0.00,WUHU216HW,2013-06-09 18:48:00,
2013-06-09 11:58:00,99.4,33.3,29.94,WNW,293,3.4,9.4,6,0.00,,,0.00,WUHU216HW,2013-06-09 18:58:00,
2013-06-09 12:08:00,99.9,33.8,29.94,West,270,10.3,10.3,5,0.00,,,0.00,WUHU216HW,2013-06-09 19:08:00,
2013-06-09 12:18:00,100.4,34.2,29.94,NW,315,4.9,8.9,5,0.00,,,0.00,WUHU216HW,2013-06-09 19:18:00,
2013-06-09 12:29:00,100.6,34.3,29.94,NW,315,5.6,6.9,5,0.00,,,0.00,WUHU216HW,2013-06-09 19:29:00,
2013-06-09 12:39:00,100.8,34.5,29.93,NW,315,7.6,8.3,5,0.00,,,0.00,WUHU216HW,2013-06-09 19:39:00,
2013-06-09 12:49:00,100.8,34.5,29.93,North,0,4.7,11.0,5,0.00,,,0.00,WUHU216HW,2013-06-09 19:49:00,
2013-06-09 12:59:00,101.2,34.8,29.93,NNW,338,6.5,7.8,5,0.00,,,0.00,WUHU216HW,2013-06-09 19:59:00,
2013-06-09 13:09:00,101.5,34.9,29.93,WNW,293,10.5,10.5,3,0.00,,,0.00,WUHU216HW,2013-06-09 20:09:00,
2013-06-09 13:19:00,101.9,35.2,29.92,WNW,293,11.2,11.2,3,0.00,,,0.00,WUHU216HW,2013-06-09 20:19:00,
2013-06-09 13:29:00,102.2,35.5,29.92,NNW,338,4.0,9.2,5,0.00,,,0.00,WUHU216HW,2013-06-09 20:29:00,
2013-06-09 13:39:00,102.4,35.7,29.91,NNW,338,2.7,7.6,5,0.00,,,0.00,WUHU216HW,2013-06-09 20:39:00,
2013-06-09 13:49:00,102.6,35.7,29.91,North,0,5.4,10.5,5,0.00,,,0.00,WUHU216HW,2013-06-09 20:49:00,
2013-06-09 13:59:00,102.4,35.7,29.90,NNW,338,5.4,8.3,5,0.00,,,0.00,WUHU216HW,2013-06-09 20:59:00,
2013-06-09 14:09:00,102.6,35.7,29.90,WNW,293,5.4,9.2,5,0.00,,,0.00,WUHU216HW,2013-06-09 21:09:00,
2013-06-09 14:19:00,102.6,35.7,29.90,North,0,6.5,8.1,5,0.00,,,0.00,WUHU216HW,2013-06-09 21:19:00,
2013-06-09 14:29:00,102.8,35.9,29.89,NNW,338,5.4,10.3,5,0.00,,,0.00,WUHU216HW,2013-06-09 21:29:00,
2013-06-09 14:39:00,103.3,36.4,29.89,NNW,338,9.8,10.5,5,0.00,,,0.00,WUHU216HW,2013-06-09 21:39:00,
2013-06-09 14:49:00,103.0,36.0,29.88,NNW,338,8.3,9.6,5,0.00,,,0.00,WUHU216HW,2013-06-09 21:49:00,
2013-06-09 14:59:00,103.3,36.4,29.88,West,270,4.5,7.4,5,0.00,,,0.00,WUHU216HW,2013-06-09 21:59:00,
2013-06-09 15:09:00,103.3,36.4,29.88,West,270,8.1,12.1,5,0.00,,,0.00,WUHU216HW,2013-06-09 22:09:00,
2013-06-09 15:19:00,103.1,36.2,29.88,West,270,5.6,8.7,6,0.00,,,0.00,WUHU216HW,2013-06-09 22:19:00,
2013-06-09 15:29:00,103.1,36.2,29.88,NNW,338,7.2,16.8,6,0.00,,,0.00,WUHU216HW,2013-06-09 22:29:00,
2013-06-09 15:39:00,103.7,36.6,29.87,NW,315,9.2,9.2,5,0.00,,,0.00,WUHU216HW,2013-06-09 22:39:00,
2013-06-09 15:50:00,103.3,36.4,29.87,North,0,10.3,10.3,5,0.00,,,0.00,WUHU216HW,2013-06-09 22:50:00,
2013-06-09 16:00:00,103.3,36.4,29.86,WNW,293,4.7,12.1,5,0.00,,,0.00,WUHU216HW,2013-06-09 23:00:00,
2013-06-09 16:10:00,103.1,36.2,29.86,NW,315,3.1,7.8,5,0.00,,,0.00,WUHU216HW,2013-06-09 23:10:00,
2013-06-09 16:20:00,103.3,36.4,29.85,NW,315,4.7,7.6,5,0.00,,,0.00,WUHU216HW,2013-06-09 23:20:00,
2013-06-09 16:30:00,103.1,36.2,29.85,NNW,338,9.2,9.2,5,0.00,,,0.00,WUHU216HW,2013-06-09 23:30:00,
2013-06-09 16:40:00,102.8,35.9,29.85,NW,315,4.3,8.5,5,0.00,,,0.00,WUHU216HW,2013-06-09 23:40:00,
2013-06-09 16:50:00,102.8,35.9,29.85,West,270,6.0,6.5,5,0.00,,,0.00,WUHU216HW,2013-06-09 23:50:00,
2013-06-09 17:00:00,102.6,35.7,29.85,NNW,338,3.4,8.9,5,0.00,,,0.00,WUHU216HW,2013-06-10 00:00:00,
2013-06-09 17:10:00,102.6,35.7,29.85,NNW,338,3.6,6.9,6,0.00,,,0.00,WUHU216HW,2013-06-10 00:10:00,
2013-06-09 17:20:00,102.6,35.7,29.84,WNW,293,6.9,6.9,6,0.00,,,0.00,WUHU216HW,2013-06-10 00:20:00,
2013-06-09 17:30:00,102.4,35.7,29.84,NNW,338,7.6,9.6,6,0.00,,,0.00,WUHU216HW,2013-06-10 00:30:00,
2013-06-09 17:40:00,102.2,35.5,29.84,NW,315,4.0,7.4,6,0.00,,,0.00,WUHU216HW,2013-06-10 00:40:00,
2013-06-09 17:50:00,102.1,35.4,29.84,NW,315,4.5,9.4,6,0.00,,,0.00,WUHU216HW,2013-06-10 00:50:00,
2013-06-09 18:00:00,101.7,35.1,29.84,North,0,4.0,6.3,6,0.00,,,0.00,WUHU216HW,2013-06-10 01:00:00,
2013-06-09 18:10:00,101.3,34.8,29.84,NNE,23,4.7,7.4,6,0.00,,,0.00,WUHU216HW,2013-06-10 01:10:00,
2013-06-09 18:21:00,100.8,34.5,29.84,NNW,338,7.2,8.9,6,0.00,,,0.00,WUHU216HW,2013-06-10 01:21:00,
2013-06-09 18:31:00,100.4,34.2,29.84,NNW,338,3.8,8.7,6,0.00,,,0.00,WUHU216HW,2013-06-10 01:31:00,
2013-06-09 18:41:00,100.1,33.9,29.85,NW,315,6.3,9.2,6,0.00,,,0.00,WUHU216HW,2013-06-10 01:41:00,
2013-06-09 18:51:00,99.5,33.5,29.85,North,0,4.0,6.5,7,0.00,,,0.00,WUHU216HW,2013-06-10 01:51:00,
2013-06-09 19:01:00,99.0,33.0,29.85,North,0,1.8,4.5,7,0.00,,,0.00,WUHU216HW,2013-06-10 02:01:00,
2013-06-09 19:11:00,98.3,32.5,29.85,NNW,338,3.4,5.4,7,0.00,,,0.00,WUHU216HW,2013-06-10 02:11:00,
2013-06-09 19:21:00,97.4,31.8,29.85,WNW,293,2.2,2.9,7,0.00,,,0.00,WUHU216HW,2013-06-10 02:21:00,
2013-06-09 19:31:00,96.5,31.1,29.85,NNW,338,2.2,2.5,7,0.00,,,0.00,WUHU216HW,2013-06-10 02:31:00,
2013-06-09 19:41:00,95.8,30.6,29.85,North,0,0.4,2.9,8,0.00,,,0.00,WUHU216HW,2013-06-10 02:41:00,
2013-06-09 19:51:00,95.0,30.1,29.85,NW,315,2.5,2.5,8,0.00,,,0.00,WUHU216HW,2013-06-10 02:51:00,
2013-06-09 20:01:00,94.0,29.2,29.85,NNW,338,0.0,0.4,8,0.00,,,0.00,WUHU216HW,2013-06-10 03:01:00,
2013-06-09 20:11:00,92.5,29.9,29.85,NNW,338,0.0,0.0,11,0.00,,,0.00,WUHU216HW,2013-06-10 03:11:00,
2013-06-09 20:21:00,91.3,29.0,29.86,NNW,338,0.0,0.0,11,0.00,,,0.00,WUHU216HW,2013-06-10 03:21:00,
2013-06-09 20:31:00,89.8,27.8,29.86,ESE,113,0.7,0.7,11,0.00,,,0.00,WUHU216HW,2013-06-10 03:31:00,
2013-06-09 20:42:00,88.7,28.8,29.86,ESE,113,0.0,1.1,12,0.00,,,0.00,WUHU216HW,2013-06-10 03:42:00,
2013-06-09 20:52:00,87.8,29.9,29.87,SE,135,0.0,1.1,13,0.00,,,0.00,WUHU216HW,2013-06-10 03:52:00,
2013-06-09 21:02:00,86.8,29.0,29.87,SE,135,0.7,0.7,13,0.00,,,0.00,WUHU216HW,2013-06-10 04:02:00,
2013-06-09 21:12:00,85.7,29.8,29.87,SE,135,0.4,1.8,14,0.00,,,0.00,WUHU216HW,2013-06-10 04:12:00,
2013-06-09 21:22:00,84.8,27.4,29.87,SE,135,0.4,1.6,13,0.00,,,0.00,WUHU216HW,2013-06-10 04:22:00,
2013-06-09 21:32:00,84.1,28.5,29.88,South,180,1.1,1.3,14,0.00,,,0.00,WUHU216HW,2013-06-10 04:32:00,
2013-06-09 21:42:00,83.7,30.0,29.88,South,180,0.0,1.1,15,0.00,,,0.00,WUHU216HW,2013-06-10 04:42:00,
2013-06-09 21:52:00,83.2,29.5,29.88,SE,135,0.7,1.8,15,0.00,,,0.00,WUHU216HW,2013-06-10 04:52:00,
2013-06-09 22:02:00,82.4,29.0,29.89,SSE,158,0.0,0.7,15,0.00,,,0.00,WUHU216HW,2013-06-10 05:02:00,
2013-06-09 22:12:00,81.9,28.5,29.89,ENE,68,0.7,1.3,15,0.00,,,0.00,WUHU216HW,2013-06-10 05:12:00,
2013-06-09 22:22:00,81.2,29.7,29.89,SE,135,0.7,1.1,16,0.00,,,0.00,WUHU216HW,2013-06-10 05:22:00,
2013-06-09 22:32:00,80.5,29.1,29.89,SE,135,0.0,0.2,16,0.00,,,0.00,WUHU216HW,2013-06-10 05:32:00,
2013-06-09 22:42:00,79.7,28.4,29.89,SSE,158,0.0,1.1,16,0.00,,,0.00,WUHU216HW,2013-06-10 05:42:00,
2013-06-09 22:52:00,79.0,29.5,29.89,SSE,158,0.7,0.9,17,0.00,,,0.00,WUHU216HW,2013-06-10 05:52:00,
2013-06-09 23:02:00,78.8,29.3,29.89,SE,135,1.1,1.8,17,0.00,,,0.00,WUHU216HW,2013-06-10 06:02:00,
2013-06-09 23:12:00,78.5,27.5,29.89,SE,135,0.0,4.0,16,0.00,,,0.00,WUHU216HW,2013-06-10 06:12:00,
2013-06-09 23:22:00,78.5,29.1,29.89,SW,225,0.2,1.1,17,0.00,,,0.00,WUHU216HW,2013-06-10 06:22:00,
2013-06-09 23:32:00,78.1,28.8,29.89,SE,135,0.9,2.2,17,0.00,,,0.00,WUHU216HW,2013-06-10 06:32:00,
2013-06-09 23:42:00,77.9,28.6,29.89,SSW,203,0.4,1.8,17,0.00,,,0.00,WUHU216HW,2013-06-10 06:42:00,
2013-06-09 23:52:00,77.4,29.9,29.89,WSW,248,0.2,1.1,18,0.00,,,0.00,WUHU216HW,2013-06-10 06:52:00,